Weather History for Papa, Hungary

Change the Weather History Date:

Tuesday, November 26, 2013

  Actual Average Record
Temperature  
Mean Temperature 34 °F -  
Max Temperature 37 °F - - ()
Min Temperature 30 °F - - ()
Degree Days  
Heating Degree Days 32    
Moisture  
Dew Point 27 °F    
Average Humidity 80    
Maximum Humidity 93    
Minimum Humidity 70    
Precipitation  
Precipitation 0.00 in - - ()
Sea Level Pressure  
Sea Level Pressure 30.20 in    
Wind  
Wind Speed 18 mph ()    
Max Wind Speed 25 mph    
Max Gust Speed 36 mph    
Visibility 6.2 miles    
Events      
T = Trace of Precipitation, MM = Missing Value Source: Averaged Metar Reports

Daily Weather History Graph

Daily Weather History Graph

Search for Another Location

Airport:

Trip Planner

Search our weather history database for the weather conditions in past years. The results will help you decide how hot, cold, wet, or windy it might be!

Date:

Astronomy

Nov. 26, 2013 Rise Set
Actual Time 7:09 AM CET 4:04 PM CET
Civil Twilight 6:35 AM CET 4:38 PM CET
Nautical Twilight 5:57 AM CET 5:17 PM CET
Astronomical Twilight 5:20 AM CET 5:53 PM CET
Moon No Moon Rise 12:27 PM CET (11/26)
Length of Visible Light 10h 03m
Length of Day
8h 54m
Last Quarter, 44% of the Moon is Illuminated
Nov 26
Last Quarter
Dec 3
New
Dec 9
First Quarter
Dec 17
Full
Dec 25
Last Quarter

Hourly Weather History & Observations

Time (CET) Temp. Windchill Dew Point Humidity Pressure Visibility Wind Dir Wind Speed Gust Speed Precip Events Conditions
12:15 AM 32.0 °F 19.4 °F 26.6 °F 80% 30.12 in - North 22.4 mph - N/A   Clear
12:45 AM 32.0 °F 19.4 °F 26.6 °F 80% 30.15 in - NNW 22.4 mph - N/A   Clear
1:15 AM 32.0 °F 19.4 °F 26.6 °F 80% 30.12 in - NNW 22.4 mph - N/A   Clear
1:45 AM 32.0 °F 18.8 °F 26.6 °F 80% 30.15 in - North 24.6 mph - N/A   Clear
2:15 AM 32.0 °F 19.4 °F 26.6 °F 80% 30.15 in - NNW 22.4 mph - N/A   Clear
2:45 AM 32.0 °F 19.4 °F 26.6 °F 80% 30.15 in - NNW 22.4 mph - N/A   Clear
3:15 AM 32.0 °F 19.4 °F 26.6 °F 80% 30.15 in - NNW 22.4 mph - N/A   Clear
3:45 AM 32.0 °F 19.4 °F 26.6 °F 80% 30.15 in - NNW 22.4 mph - N/A   Clear
4:15 AM 32.0 °F 20.0 °F 26.6 °F 80% 30.15 in - NNW 20.1 mph - N/A   Clear
4:45 AM 30.2 °F 17.6 °F 26.6 °F 86% 30.15 in - NNW 20.1 mph 31.3 mph N/A   Clear
5:15 AM 30.2 °F 17.0 °F 26.6 °F 86% 30.15 in - NNW 22.4 mph - N/A   Clear
5:45 AM 30.2 °F 17.6 °F 24.8 °F 80% 30.18 in - NNW 20.1 mph 33.6 mph N/A   Clear
6:15 AM 32.0 °F 20.6 °F 24.8 °F 75% 30.18 in - NNW 17.9 mph 29.1 mph N/A   Clear
6:45 AM 30.2 °F 18.3 °F 24.8 °F 80% 30.18 in - NNW 17.9 mph 29.1 mph N/A   Clear
7:15 AM 30.2 °F 18.3 °F 24.8 °F 80% 30.18 in 6.2 mi NNW 17.9 mph 29.1 mph N/A   Partly Cloudy
7:45 AM 32.0 °F 20.0 °F 24.8 °F 75% 30.18 in 6.2 mi NNW 20.1 mph - N/A   Partly Cloudy
8:15 AM 32.0 °F 20.0 °F 26.6 °F 80% 30.21 in 6.2 mi NNW 20.1 mph - N/A   Partly Cloudy
8:45 AM 32.0 °F 20.6 °F 26.6 °F 80% 30.21 in 6.2 mi NNW 17.9 mph 29.1 mph N/A   Partly Cloudy
9:15 AM 32.0 °F 19.4 °F 26.6 °F 80% 30.21 in 6.2 mi NNW 22.4 mph - N/A   Scattered Clouds
9:45 AM 33.8 °F 23.0 °F 26.6 °F 75% 30.21 in 6.2 mi NNW 17.9 mph 29.1 mph N/A   Scattered Clouds
10:15 AM 33.8 °F 22.3 °F 26.6 °F 75% 30.21 in 6.2 mi North 20.1 mph - N/A   Scattered Clouds
10:45 AM 33.8 °F 22.3 °F 26.6 °F 75% 30.21 in 6.2 mi NNW 20.1 mph - N/A   Scattered Clouds
11:15 AM 35.6 °F 24.1 °F 26.6 °F 70% 30.21 in 6.2 mi North 22.4 mph - N/A   Scattered Clouds
11:45 AM 33.8 °F 22.3 °F 28.4 °F 81% 30.21 in 6.2 mi NNW 20.1 mph 31.3 mph N/A   Scattered Clouds
12:15 PM 37.4 °F 27.0 °F 28.4 °F 70% 30.21 in 6.2 mi NNW 20.1 mph - N/A   Mostly Cloudy
12:45 PM 37.4 °F 27.0 °F 28.4 °F 70% 30.21 in 6.2 mi North 20.1 mph 35.8 mph N/A   Mostly Cloudy
1:15 PM 35.6 °F 24.1 °F 26.6 °F 70% 30.21 in 6.2 mi North 22.4 mph 33.6 mph N/A   Mostly Cloudy
1:45 PM 35.6 °F 24.1 °F 28.4 °F 75% 30.18 in 6.2 mi NNW 22.4 mph - N/A   Mostly Cloudy
2:15 PM 35.6 °F 24.7 °F 30.2 °F 81% 30.21 in 6.2 mi NNW 20.1 mph - N/A   Mostly Cloudy
2:45 PM 35.6 °F 24.7 °F 30.2 °F 81% 30.21 in 6.2 mi NNW 20.1 mph 31.3 mph N/A   Mostly Cloudy
3:15 PM 35.6 °F 24.1 °F 30.2 °F 81% 30.21 in 6.2 mi NNW 22.4 mph - N/A   Mostly Cloudy
3:45 PM 33.8 °F 23.0 °F 30.2 °F 87% 30.21 in 6.2 mi NNW 17.9 mph - N/A   Mostly Cloudy
4:15 PM 33.8 °F 23.7 °F 30.2 °F 87% 30.21 in 6.2 mi NNW 15.7 mph - N/A   Mostly Cloudy
4:45 PM 33.8 °F 24.5 °F 30.2 °F 87% 30.21 in 6.2 mi NNW 13.4 mph - N/A   Mostly Cloudy
5:15 PM 33.8 °F 23.7 °F 30.2 °F 87% 30.21 in 6.2 mi NNW 15.7 mph - N/A   Mostly Cloudy
5:45 PM 32.0 °F 21.4 °F 30.2 °F 93% 30.21 in 6.2 mi NNW 15.7 mph - N/A   Mostly Cloudy
6:15 PM 32.0 °F 22.2 °F 30.2 °F 93% 30.21 in 6.2 mi NNW 13.4 mph - N/A   Mostly Cloudy
6:45 PM 32.0 °F 23.2 °F 30.2 °F 93% 30.21 in 6.2 mi NNW 11.2 mph - N/A   Mostly Cloudy
7:15 PM 32.0 °F 22.2 °F 28.4 °F 87% 30.24 in - North 13.4 mph - N/A   Clear
7:45 PM 32.0 °F 23.2 °F 28.4 °F 87% 30.24 in - NNW 11.2 mph - N/A   Clear
8:15 PM 32.0 °F 23.2 °F 28.4 °F 87% 30.24 in - NNW 11.2 mph - N/A   Clear
8:45 PM 32.0 °F 22.2 °F 26.6 °F 80% 30.24 in - North 13.4 mph - N/A   Clear
9:15 PM 32.0 °F 21.4 °F 26.6 °F 80% 30.24 in - North 15.7 mph - N/A   Clear
9:45 PM 33.8 °F 23.7 °F 26.6 °F 75% 30.27 in - North 15.7 mph - N/A   Clear
10:15 PM 32.0 °F 22.2 °F 26.6 °F 80% 30.24 in - North 13.4 mph - N/A   Clear
10:45 PM 32.0 °F 22.2 °F 24.8 °F 75% 30.24 in - North 13.4 mph - N/A   Clear
11:15 PM 32.0 °F 22.2 °F 24.8 °F 75% 30.27 in - North 13.4 mph - N/A   Clear
11:45 PM 32.0 °F 22.2 °F 24.8 °F 75% 30.27 in - North 13.4 mph 24.6 mph N/A   Clear